| time (UTC) | temp F | wind direction | speed MPH | gust MPH | rain 1hr in | rain 24hr in | rain mn in | humidity % | barometer mb |
| 20260505061501 | 61 | 203 | 4.0 | 13.0 | 0.00 | 0.02 | 0.00 | 58 | 1000.8 |
| 20260505060103 | 61 | 213 | 6.0 | 15.0 | 0.00 | 0.02 | 0.00 | 57 | 1001.2 |
| 20260505054625 | 61 | 150 | 8.0 | 16.0 | 0.00 | 0.02 | 0.00 | 56 | 1000.9 |
| 20260505053103 | 60 | 185 | 5.0 | 12.0 | 0.00 | 0.02 | 0.00 | 57 | 1001.3 |
| 20260505051550 | 60 | 199 | 4.0 | 8.0 | 0.00 | 0.02 | 0.00 | 58 | 1001.3 |
| 20260505041545 | 59 | 151 | 3.0 | 5.0 | 0.00 | 0.04 | 0.00 | 58 | 1001.8 |
| 20260505040040 | 59 | 149 | 5.0 | 7.0 | 0.00 | 0.05 | 0.04 | 57 | 1001.9 |
| 20260505034539 | 60 | 154 | 3.0 | 6.0 | 0.00 | 0.05 | 0.04 | 56 | 1001.8 |
| 20260505033037 | 60 | 167 | 3.0 | 8.0 | 0.00 | 0.05 | 0.04 | 56 | 1002.0 |
| 20260505031546 | 61 | 210 | 5.0 | 8.0 | 0.00 | 0.05 | 0.04 | 55 | 1002.1 |
| 20260505030036 | 61 | 151 | 4.0 | 6.0 | 0.00 | 0.05 | 0.04 | 55 | 1002.0 |
| 20260505024538 | 61 | 164 | 6.0 | 10.0 | 0.00 | 0.05 | 0.04 | 55 | 1002.2 |
| 20260505023033 | 60 | 208 | 4.0 | 8.0 | 0.00 | 0.05 | 0.04 | 57 | 1002.3 |
| 20260505021532 | 61 | 151 | 4.0 | 9.0 | 0.00 | 0.05 | 0.04 | 57 | 1002.5 |
| 20260505020034 | 61 | 145 | 3.0 | 8.0 | 0.00 | 0.05 | 0.04 | 57 | 1002.5 |
| 20260505014535 | 61 | 197 | 4.0 | 7.0 | 0.00 | 0.05 | 0.04 | 57 | 1002.5 |
| 20260505013030 | 61 | 173 | 2.0 | 7.0 | 0.00 | 0.05 | 0.04 | 57 | 1002.6 |
| 20260505011534 | 61 | 199 | 3.0 | 6.0 | 0.00 | 0.05 | 0.04 | 58 | 1002.6 |
| 20260505010029 | 61 | 207 | 2.0 | 6.0 | 0.00 | 0.05 | 0.04 | 58 | 1002.8 |
| 20260505004543 | 62 | 146 | 3.0 | 7.0 | 0.00 | 0.05 | 0.04 | 58 | 1002.7 |
| 20260505003031 | 62 | 186 | 3.0 | 9.0 | 0.00 | 0.05 | 0.04 | 58 | 1002.6 |
| 20260505001527 | 63 | 210 | 3.0 | 6.0 | 0.00 | 0.05 | 0.04 | 57 | 1002.5 |
| 20260505000039 | 63 | 161 | 3.0 | 7.0 | 0.00 | 0.05 | 0.04 | 57 | 1002.3 |
| 20260504234525 | 64 | 169 | 3.0 | 6.0 | 0.00 | 0.05 | 0.04 | 57 | 1002.4 |
| 20260504233025 | 65 | 196 | 4.0 | 10.0 | 0.00 | 0.05 | 0.04 | 54 | 1002.2 |
| 20260504231524 | 65 | 222 | 5.0 | 9.0 | 0.00 | 0.05 | 0.04 | 54 | 1002.4 |
| 20260504230023 | 66 | 214 | 4.0 | 11.0 | 0.00 | 0.05 | 0.04 | 53 | 1002.5 |
| 20260504224521 | 66 | 249 | 6.0 | 12.0 | 0.00 | 0.05 | 0.04 | 51 | 1002.4 |
| 20260504223021 | 67 | 232 | 5.0 | 16.0 | 0.00 | 0.05 | 0.04 | 50 | 1002.6 |
| 20260504221520 | 68 | 231 | 9.0 | 14.0 | 0.00 | 0.05 | 0.04 | 48 | 1002.7 |
| 20260504220019 | 68 | 231 | 11.0 | 21.0 | 0.00 | 0.05 | 0.04 | 48 | 1002.7 |
| 20260504214519 | 69 | 215 | 10.0 | 22.0 | 0.00 | 0.05 | 0.04 | 48 | 1002.8 |
| 20260504213017 | 69 | 257 | 13.0 | 21.0 | 0.00 | 0.05 | 0.04 | 49 | 1002.8 |
| 20260504211518 | 69 | 207 | 10.0 | 21.0 | 0.00 | 0.05 | 0.04 | 50 | 1002.9 |
| 20260504210021 | 68 | 226 | 11.0 | 19.0 | 0.00 | 0.05 | 0.04 | 49 | 1002.9 |
| 20260504204512 | 68 | 248 | 13.0 | 22.0 | 0.00 | 0.05 | 0.04 | 49 | 1003.3 |
| 20260504203010 | 68 | 229 | 14.0 | 21.0 | 0.00 | 0.05 | 0.04 | 50 | 1003.2 |
| 20260504201508 | 67 | 216 | 9.0 | 27.0 | 0.00 | 0.05 | 0.04 | 50 | 1003.4 |
| 20260504200009 | 66 | 247 | 16.0 | 26.0 | 0.00 | 0.05 | 0.04 | 50 | 1003.5 |
| 20260504194504 | 66 | 241 | 14.0 | 23.0 | 0.00 | 0.05 | 0.04 | 50 | 1003.7 |
| 20260504193002 | 66 | 259 | 13.0 | 25.0 | 0.00 | 0.05 | 0.04 | 51 | 1003.9 |
| 20260504191608 | 66 | 264 | 14.0 | 20.0 | 0.00 | 0.05 | 0.04 | 50 | 1003.9 |
| 20260504190121 | 66 | 224 | 10.0 | 20.0 | 0.00 | 0.05 | 0.04 | 52 | 1004.2 |
| 20260504184555 | 65 | 253 | 13.0 | 26.0 | 0.00 | 0.05 | 0.04 | 51 | 1004.3 |
| 20260504183152 | 64 | 238 | 17.0 | 30.0 | 0.00 | 0.05 | 0.04 | 52 | 1004.4 |
| 20260504181555 | 64 | 234 | 14.0 | 21.0 | 0.00 | 0.05 | 0.04 | 52 | 1004.4 |
| 20260504180048 | 63 | 241 | 16.0 | 26.0 | 0.00 | 0.05 | 0.04 | 53 | 1004.7 |
| 20260504174545 | 63 | 262 | 15.0 | 26.0 | 0.00 | 0.05 | 0.04 | 53 | 1004.9 |
| 20260504173045 | 62 | 257 | 16.0 | 26.0 | 0.00 | 0.05 | 0.04 | 54 | 1005.0 |
| 20260504171540 | 62 | 234 | 13.0 | 24.0 | 0.00 | 0.05 | 0.04 | 53 | 1005.2 |
| 20260504081540 | 49 | 181 | 10.0 | 17.0 | 0.00 | 0.03 | 0.02 | 78 | 1005.8 |